Flag for United Arab Emirates Weather past 2 weeks in Abu Dhabi, Abu Dhabi, United Arab Emirates

Now
73 °F

Clear.


Feels Like: 72 °F
Forecast: 68 / 82 °F
Wind: 3 mph from North

Location: Abu Dhabi Bateen Airport

Current Time: Mar 28, 2015 at 11:35:12 PM

Latest Report: Mar 28, 2015 at 11:00 PM


Visibility: 6 mi

Pressure: 29.95 "Hg

Humidity: 89%

Dew point: 70 °F

Location of Abu DhabiLocation

Historic Weather in Abu Dhabi — Graph

°F

Abu Dhabi temperature yesterday

Maximum temperature yesterday: 86 °F (at 1:00 PM)
Minimum temperature yesterday: 73 °F (at 1:00 AM)
Average temperature yesterday: 78 °F

Past Weeks' High & Low Weather Summary

 TemperatureHumidityPressure
High97 °F (Mar 19, 4:00 PM)89% (Mar 28, 3:00 AM)30.07 "Hg (Mar 28, 3:00 AM)
Low63 °F (Mar 14, 6:00 AM)12% (Mar 15, 5:00 PM)29.83 "Hg (Mar 18, 4:00 PM)
Average78 °F55%29.95 "Hg
* Reported Mar 13 10:00 PM — Mar 28 10:00 PM, Abu Dhabi, Weather by CustomWeather, © 2015

Note: Actual official high and low records may vary slightly from our data, if they occured in-between our weather recording intervals... More about our weather records

Advertising

Abu Dhabi weather history for previous 24 hours

 ConditionsComfort  
Time TempWeatherWind HumidityBarometerVisibility
10:00 PM
Sat, Mar 28
75 °FClear.3 mph78%29.95 "Hg10 mi
9:00 PM75 °FPassing clouds.6 mph78%29.95 "HgN/A
8:00 PM75 °FPassing clouds.7 mph78%29.92 "HgN/A
7:00 PM75 °FClear.12 mph78%29.92 "Hg10 mi
6:00 PM77 °FSunny.12 mph79%29.92 "Hg10 mi
5:00 PM79 °FSunny.12 mph70%29.92 "Hg10 mi
4:00 PM81 °FPassing clouds.14 mph62%29.89 "HgN/A
3:00 PM82 °FPassing clouds.12 mph55%29.92 "HgN/A
2:00 PM84 °FPassing clouds.10 mph48%29.95 "HgN/A
1:00 PM84 °FPassing clouds.8 mph48%29.98 "HgN/A
12:00 PM82 °FPassing clouds.6 mph51%30.01 "HgN/A
11:00 AM79 °FPassing clouds.7 mph65%30.01 "HgN/A
10:00 AM77 °FPassing clouds.8 mph74%30.01 "HgN/A
9:00 AM77 °FPassing clouds.8 mph74%30.01 "HgN/A
8:00 AM75 °FPassing clouds.7 mph83%29.98 "HgN/A
7:00 AM73 °FSunny.5 mph83%29.95 "Hg10 mi
6:00 AM73 °FClear.7 mph83%29.95 "Hg10 mi
5:00 AM73 °FPassing clouds.6 mph89%29.95 "HgN/A
4:00 AM73 °FPassing clouds.5 mph89%29.92 "HgN/A
3:00 AM73 °FPassing clouds.6 mph89%29.95 "HgN/A
2:00 AM75 °FMild.7 mph78%29.95 "HgN/A
1:00 AM75 °FPassing clouds.5 mph78%29.95 "HgN/A
12:00 AM77 °FClear.6 mph69%29.98 "Hg10 mi
11:00 PM
Fri, Mar 27
77 °FClear.3 mph69%29.98 "Hg10 mi
Weather by CustomWeather, © 2015

See weather overviewHow to use our weather pages